GEFSCGP_500_meanwind_000.txt.gz
Wind_Speed
22 24 27 30 30 27 24 21 20 20 22 22 24 23 25 29 31 33 35 35 35 34 32 33 32 29 29 32 33 34 32 31 31 25 21 20 19 19 20 19 17 15 12 13
27 26 30 29 27 23 21 21 22 22 24 24 25 25 26 32 35 36 36 34 33 32 32 30 28 25 25 29 29 28 30 28 27 23 23 19 17 17 20 20 18 16 14 14
28 27 28 26 23 22 21 22 22 23 25 26 28 29 29 35 35 34 32 29 26 25 25 22 19 19 19 20 20 21 24 25 28 28 28 23 19 18 20 21 21 19 16 16
27 26 26 24 20 22 21 23 23 24 26 26 28 31 32 33 30 28 24 21 19 17 16 12 12 13 14 13 13 17 13 16 15 22 22 20 20 20 20 23 23 22 20 19
27 25 25 23 21 23 21 23 23 24 26 27 28 32 30 30 26 23 18 15 15 13 11 10 12 16 15 12 13 12 10 13 13 15 15 18 21 22 21 23 24 21 19 19
26 24 23 22 21 21 21 22 23 25 27 28 28 29 27 24 21 20 18 16 16 17 17 17 19 19 16 15 14 12 12 13 14 17 25 22 22 22 22 22 21 21 20 20
23 21 21 21 20 21 20 21 23 26 26 27 26 25 23 19 18 19 19 16 16 17 17 17 15 12 11 14 14 15 11 14 17 18 24 23 20 19 21 22 22 21 21 20
19 21 21 20 20 21 21 22 25 26 27 27 25 22 22 19 17 16 15 15 17 18 17 17 15 14 16 16 16 18 18 19 23 23 24 22 20 19 20 22 22 21 19 17
19 21 20 20 21 22 23 25 27 28 30 27 22 21 25 21 18 18 18 20 21 21 20 19 20 19 19 20 20 20 23 25 27 27 26 21 20 20 21 22 23 22 18 15
20 20 20 20 22 24 25 26 26 27 27 26 23 21 21 21 21 22 22 22 22 22 22 21 21 20 20 23 24 24 22 25 28 30 27 22 22 23 23 23 25 25 22 18
20 21 22 21 22 24 27 27 26 26 27 27 22 18 21 19 19 21 22 21 21 21 20 22 23 23 24 25 27 27 24 17 21 26 27 23 21 24 24 24 27 28 28 27
22 22 22 22 24 25 27 26 25 25 25 25 24 17 22 19 19 19 18 16 17 17 16 16 18 20 22 24 24 21 17 13 17 22 28 21 21 23 24 25 26 27 28 28
24 23 22 23 23 24 25 24 24 26 25 26 25 21 23 21 18 16 15 13 12 14 14 14 14 15 16 17 18 19 19 17 16 19 27 27 23 23 24 24 23 23 26 26
25 25 25 25 25 26 25 24 24 25 23 23 20 19 20 19 13 13 12 10 10 13 14 13 13 13 13 13 12 12 15 18 18 20 23 24 24 24 25 24 23 23 24 24
27 28 29 29 28 29 28 24 22 21 20 19 17 19 18 17 11 12 11 11 13 17 19 18 16 16 14 12 10 10 11 13 15 17 20 25 25 24 23 23 22 22 23 24
32 33 33 30 30 30 28 24 20 17 16 16 17 16 20 13 12 12 12 14 17 19 20 21 20 19 18 17 17 16 19 20 20 19 21 23 22 22 23 23 23 23 23 23
33 33 31 30 30 29 26 21 16 13 14 14 13 12 16 13 12 13 14 17 19 21 23 25 26 25 24 23 22 22 22 24 25 26 26 25 25 25 26 27 26 27 28 29
20 20 19 19 23 25 16 14 11 10 12 11 9 10 12 12 12 14 18 20 21 24 26 27 28 29 28 27 26 27 26 26 27 27 27 27 26 25 23 25 26 26 26 29
10 11 10 7 7 11 9 8 8 9 12 11 9 8 10 12 15 18 20 22 24 25 25 26 28 29 30 29 29 29 29 30 30 29 27 27 28 28 27 27 27 26 25 26
14 8 8 10 8 6 5 5 5 7 8 8 8 9 10 12 14 18 21 23 24 24 26 28 29 29 28 28 28 30 30 30 30 30 29 30 29 27 27 26 26 26 26 24
7 7 6 6 6 5 4 4 5 6 8 7 9 11 12 15 17 21 25 26 24 24 26 27 26 25 25 25 26 28 29 29 29 29 29 30 30 29 27 25 23 24 23 21
10 11 8 7 7 9 8 9 9 10 11 13 13 14 15 17 20 23 25 25 23 23 23 22 21 21 22 24 27 30 31 32 30 29 28 28 29 30 28 28 24 21 21 20
15 14 13 11 11 12 10 10 12 13 14 15 16 15 16 18 21 24 25 23 22 21 19 18 18 19 21 23 26 29 32 35 34 30 28 27 28 28 29 28 27 23 22 23
17 17 16 14 14 13 10 11 15 14 15 17 17 16 16 18 22 25 23 21 20 18 17 17 18 20 22 23 25 26 28 31 32 28 27 26 27 27 27 27 27 26 24 23
20 17 16 15 16 13 12 14 16 15 15 15 16 15 16 19 22 21 19 18 17 16 15 17 19 21 23 25 27 27 22 18 16 13 18 22 23 24 25 26 26 26 25 24
20 19 18 16 17 13 12 16 16 14 14 14 13 13 16 18 18 17 17 16 16 15 15 17 21 24 24 23 24 23 17 8 5 7 12 17 19 19 22 25 25 23 22 22

GEFSCGP_500_meanwind_006.txt.gz
Wind_Speed
29 28 23 17 15 17 19 20 23 21 21 21 19 19 20 22 24 25 28 31 33 33 30 29 28 27 28 25 25 25 26 26 26 25 24 23 24 24 24 23 24 22 20 18
21 15 12 13 15 19 21 23 23 20 19 20 19 18 19 23 26 25 27 30 31 30 28 25 24 23 20 17 18 19 20 22 25 26 25 25 24 25 23 23 23 22 21 18
19 16 15 17 19 22 23 23 22 20 18 18 21 20 20 25 28 27 26 28 28 26 24 21 20 17 14 14 16 19 20 21 23 25 25 25 24 24 23 23 23 23 23 23
21 19 21 23 23 23 23 22 21 18 17 16 19 21 18 23 31 31 29 28 26 23 21 19 18 16 15 16 18 20 19 20 22 24 24 23 21 21 23 23 22 22 24 24
19 20 21 22 22 23 21 21 20 17 17 17 18 20 15 23 30 29 28 26 24 23 22 20 19 18 18 19 19 18 17 18 20 21 21 20 19 22 24 24 22 22 24 25
16 18 18 17 18 19 18 19 17 15 17 19 17 17 19 25 29 27 28 27 24 23 22 20 20 20 19 19 18 17 16 16 17 18 18 17 15 18 22 24 24 23 25 27
16 16 18 17 17 17 16 15 14 15 15 14 14 21 26 29 27 24 26 27 26 24 23 24 25 25 24 22 21 21 20 19 18 17 16 15 15 16 18 21 20 21 23 26
13 15 18 19 17 17 17 15 15 15 13 13 17 23 26 31 28 26 25 25 25 25 25 26 26 25 24 23 23 23 23 23 21 19 17 16 18 21 23 23 22 22 21 21
12 12 20 21 17 17 19 19 18 20 20 20 20 17 23 29 31 27 24 24 24 25 25 23 21 20 20 20 20 21 22 23 23 23 21 19 19 22 24 26 25 24 22 21
20 20 23 24 19 18 19 21 21 21 21 21 17 15 22 27 30 29 29 26 25 26 23 19 18 18 18 18 18 19 20 21 22 22 22 21 19 21 23 25 27 26 24 24
22 24 25 26 22 21 22 22 23 23 22 22 19 18 22 27 27 29 29 26 24 23 20 18 17 18 19 19 18 18 18 19 20 21 20 19 18 21 23 26 25 25 25 25
23 24 25 26 25 23 23 23 23 23 21 21 22 21 23 27 27 28 27 25 23 19 18 18 19 20 21 20 19 18 18 18 19 20 19 18 19 22 26 28 28 27 27 26
24 24 24 25 26 25 22 21 22 23 22 23 23 25 24 28 27 27 25 24 21 18 18 19 21 22 21 20 19 18 17 18 19 20 19 19 21 23 26 29 31 30 28 27
25 26 26 26 24 24 24 23 24 25 24 25 24 26 27 28 27 27 25 23 21 18 18 19 21 22 21 20 20 20 20 20 19 19 19 20 21 23 26 28 30 30 29 28
22 24 26 26 27 27 28 28 29 29 29 30 29 28 28 28 27 26 26 24 22 19 18 19 21 22 22 22 22 22 22 22 22 22 21 21 21 22 24 26 27 28 29 28
23 24 24 26 27 30 33 32 33 34 33 33 31 29 27 27 26 26 24 23 21 19 20 21 21 22 22 23 24 25 25 25 25 26 25 25 24 24 24 24 24 24 26 26
26 28 30 31 32 37 38 34 34 35 33 31 28 25 24 25 24 22 20 19 19 18 21 23 24 24 23 24 25 26 27 28 27 28 27 27 27 26 26 26 25 24 23 23
31 34 35 36 35 39 34 31 29 26 24 21 20 20 21 20 18 16 14 14 16 17 20 23 24 25 24 25 26 27 28 28 28 28 27 28 30 28 27 27 26 25 23 23
30 32 32 30 28 25 21 17 14 14 14 14 15 17 16 14 13 11 10 13 16 19 22 24 25 25 25 26 27 27 26 26 26 27 27 28 29 30 30 30 28 26 24 23
24 23 18 12 7 2 3 4 6 7 8 10 13 13 11 12 14 13 12 17 19 23 26 26 25 24 24 24 25 24 25 25 26 28 29 29 29 30 31 32 30 27 25 25
16 12 9 11 8 6 3 4 5 5 6 9 9 10 12 15 18 19 20 21 23 26 28 26 24 24 23 23 23 24 26 28 29 30 31 32 32 31 31 30 29 27 26 25
9 9 9 11 9 8 8 7 7 9 10 9 10 12 14 17 19 20 21 22 25 26 26 24 23 22 22 23 25 27 28 30 30 32 33 34 34 33 30 27 26 26 26 24
12 10 8 8 6 9 10 9 9 10 10 11 12 13 15 17 19 19 20 21 23 23 23 22 21 21 22 24 27 29 29 28 29 31 32 33 33 31 27 25 24 23 24 23
15 13 13 12 12 17 15 13 13 12 12 12 13 14 15 16 17 18 19 20 20 20 20 20 20 20 22 25 27 26 25 25 26 25 24 24 24 24 23 23 22 21 21 21
21 20 19 17 19 21 19 16 14 14 14 12 12 13 12 13 16 17 18 18 18 18 18 18 20 22 23 23 24 23 23 22 21 20 18 15 13 16 18 20 20 19 18 18
22 20 21 21 21 24 23 17 13 14 13 11 11 11 11 14 16 17 16 16 16 16 17 18 20 22 23 23 22 20 20 19 18 15 11 6 2 8 13 15 16 16 15 15

GEFSCGP_500_meanwind_012.txt.gz
Wind_Speed
32 31 32 34 35 34 30 27 25 23 23 23 22 21 19 20 19 17 15 16 18 19 18 21 24 25 26 25 22 19 17 16 16 16 16 15 14 13 13 14 14 15 16 17
32 29 31 32 32 30 27 25 23 21 21 22 21 19 19 21 19 16 14 16 18 20 20 21 23 24 25 23 21 19 18 17 17 16 15 16 16 15 15 15 16 17 17 19
31 29 29 30 28 27 26 23 21 20 21 23 23 19 20 20 18 14 13 14 16 19 20 21 22 23 23 22 21 20 20 19 19 18 18 17 17 17 17 17 17 18 19 21
27 26 26 27 27 24 23 23 22 21 22 22 23 20 19 21 18 13 12 12 14 17 20 22 22 23 22 21 20 21 21 22 21 20 19 17 18 18 18 17 17 18 21 23
19 21 23 23 24 25 23 22 23 22 23 22 22 22 18 20 17 15 13 13 15 18 21 23 24 24 22 21 21 22 23 23 23 22 20 19 18 18 17 16 17 19 22 25
13 16 18 17 19 22 23 23 22 22 22 21 21 23 19 20 18 17 14 16 19 20 21 22 24 24 23 22 23 23 24 24 23 23 22 21 20 19 17 16 16 18 22 25
17 17 17 17 18 20 21 21 21 21 22 20 21 23 20 20 20 18 17 18 21 22 23 23 22 23 23 23 23 23 22 21 21 21 21 21 21 20 18 16 15 17 21 25
20 20 20 20 21 21 22 21 21 21 22 22 22 22 20 21 21 21 20 20 22 24 26 26 25 24 23 21 21 19 19 19 19 19 19 20 20 19 18 18 18 18 20 24
23 23 23 22 22 23 22 22 22 24 25 26 25 24 23 23 23 23 22 22 24 25 26 26 25 25 21 17 16 15 15 16 17 17 18 18 18 18 18 18 18 19 21 24
22 23 24 23 23 22 21 21 22 25 26 27 25 23 24 25 25 24 22 23 24 23 23 23 23 22 18 15 13 14 15 16 16 16 17 17 17 17 18 18 18 19 21 24
19 20 21 22 22 22 21 21 23 25 26 26 25 23 23 25 26 25 23 24 25 23 22 21 20 19 17 15 14 14 15 16 16 16 17 17 17 18 18 18 19 19 21 24
21 19 19 21 23 23 24 23 24 24 25 26 27 25 20 24 26 25 24 25 26 25 22 21 20 18 16 15 15 15 16 17 17 17 18 18 19 19 18 18 19 21 22 25
23 23 22 22 24 26 27 26 26 25 26 28 28 25 21 23 25 24 24 25 26 27 23 22 22 20 18 17 17 18 18 19 19 20 20 19 20 19 19 19 18 20 20 22
26 27 26 25 24 26 29 29 29 29 29 29 28 26 24 24 23 23 25 27 27 27 24 23 23 21 21 21 21 21 22 23 24 24 23 22 21 20 19 18 19 19 20 21
28 28 28 26 24 26 29 30 30 30 31 31 30 29 27 27 27 28 29 28 27 26 23 21 21 21 22 22 24 25 27 28 27 26 26 24 23 22 21 20 19 19 19 21
28 28 26 23 21 25 27 26 28 30 32 32 32 30 28 30 31 31 29 27 25 23 19 17 18 19 20 22 24 27 29 29 28 27 27 26 25 25 24 23 21 21 20 20
26 25 25 23 24 27 24 21 27 30 31 33 35 32 31 33 32 28 25 24 22 19 17 16 16 17 19 22 25 27 28 28 27 26 26 26 26 27 27 26 25 24 23 22
26 26 26 26 26 27 22 27 31 33 33 34 34 32 30 28 24 21 19 18 17 16 15 16 17 20 23 25 27 28 27 26 26 25 26 26 26 27 27 27 27 27 26 25
27 26 25 25 25 24 24 26 27 25 23 23 23 21 18 16 14 13 12 13 15 16 17 20 23 26 27 28 28 27 25 25 25 24 24 24 25 26 27 28 28 28 28 27
23 22 22 22 22 21 15 13 11 10 9 8 8 8 8 9 8 9 11 14 17 20 22 24 26 27 28 28 27 25 24 24 24 24 24 25 26 28 29 30 30 30 29 29
21 20 20 19 17 10 7 6 5 3 2 0 1 2 3 4 7 10 14 17 20 21 22 23 24 25 25 24 23 23 23 24 24 26 27 27 28 29 30 31 32 32 31 30
23 20 18 16 10 14 14 9 5 2 1 2 3 4 5 7 10 13 15 18 19 20 20 20 21 21 21 20 21 22 23 24 25 25 26 27 28 29 30 31 32 32 31 30
25 22 18 15 14 19 16 12 6 1 4 5 6 6 8 9 10 11 14 16 18 19 18 18 18 18 18 19 20 22 23 23 23 23 24 25 26 27 29 30 31 31 30 28
28 26 22 18 20 22 18 12 6 2 6 7 8 9 9 9 9 10 13 15 16 16 15 15 16 17 18 19 21 21 20 19 20 21 21 21 21 23 24 25 26 26 26 25
31 29 26 24 22 23 20 15 9 4 5 8 9 9 9 10 10 12 13 14 14 13 13 14 15 16 17 19 19 19 17 17 17 17 16 16 16 15 14 15 16 18 20 21
32 31 28 26 24 23 21 18 12 7 5 8 9 9 9 10 11 12 13 12 12 11 11 12 12 13 16 17 17 16 15 15 15 15 14 13 13 10 5 3 8 12 15 17

GEFSCGP_500_meanwind_018.txt.gz
Wind_Speed
36 36 35 36 37 36 36 36 35 34 33 31 28 25 21 21 21 21 20 20 22 23 22 21 21 20 19 19 18 19 20 20 20 19 18 16 15 13 12 11 10 11 12 14
36 36 36 36 35 35 34 33 33 33 31 30 27 24 22 22 22 22 21 22 23 24 22 21 21 21 20 20 19 20 20 20 20 20 19 18 18 16 14 13 13 13 14 16
37 36 36 36 35 34 34 32 30 29 29 28 26 23 21 23 23 23 23 23 24 24 23 23 23 21 21 21 21 21 21 21 21 20 19 19 20 19 17 17 17 16 16 18
33 34 35 35 34 34 32 31 30 29 28 27 26 24 19 23 24 23 22 24 25 25 25 25 24 22 22 22 22 22 22 22 22 21 20 21 21 21 21 20 19 18 19 20
26 28 31 31 30 31 32 31 30 29 30 28 26 26 21 23 25 24 23 24 25 26 27 27 26 24 23 23 23 22 22 22 23 23 23 22 22 22 22 22 21 21 20 21
24 25 26 25 25 27 29 30 31 31 30 27 24 26 25 24 25 24 24 25 26 27 27 28 27 25 24 24 23 22 22 22 23 24 24 24 24 23 22 23 23 23 22 21
23 23 23 22 23 24 25 26 27 27 26 25 25 25 26 26 25 26 27 26 27 27 27 27 27 26 25 24 23 23 23 23 23 23 24 23 22 21 21 21 22 23 23 23
24 24 23 23 24 23 23 24 25 25 24 23 23 24 25 25 25 26 27 27 27 26 26 26 25 25 25 26 25 24 23 23 22 21 20 20 19 19 19 19 20 21 22 23
27 27 27 27 27 27 26 26 25 26 26 25 25 25 26 26 26 27 28 28 27 26 25 25 24 25 26 26 26 24 23 22 19 18 17 17 17 17 17 18 19 20 21 22
25 27 27 29 29 29 28 28 28 29 30 30 29 28 28 27 27 28 29 29 28 27 25 24 24 24 26 26 25 24 22 21 19 17 15 15 15 16 17 18 18 19 20 20
23 24 23 26 30 30 29 29 29 31 32 33 32 29 28 26 25 26 27 27 26 25 23 23 23 24 25 26 25 23 21 20 18 16 15 14 14 15 16 17 18 18 19 20
25 25 23 23 27 29 29 29 29 31 32 32 31 29 25 24 23 24 26 27 25 24 23 23 24 25 26 26 25 23 22 21 19 18 16 16 15 16 17 18 19 20 20 20
28 28 25 22 24 26 27 28 29 30 31 30 29 26 24 23 23 24 26 27 26 25 24 23 25 27 28 27 26 24 23 22 21 20 19 18 18 18 19 20 20 21 21 22
29 30 27 23 23 24 25 26 28 30 30 31 29 27 26 25 25 25 26 26 26 25 24 25 26 28 29 28 26 24 22 21 20 20 21 21 21 21 21 21 21 21 21 21
29 30 30 28 26 26 27 27 28 29 29 32 30 29 26 27 27 27 27 25 25 25 26 27 28 28 28 26 24 22 20 19 19 21 22 22 22 22 22 22 22 21 21 21
28 30 31 29 27 28 27 26 27 29 30 30 30 27 25 26 27 28 27 26 26 27 28 27 27 27 25 23 21 19 19 20 21 23 24 24 24 24 24 24 23 23 22 22
26 27 28 28 26 25 24 22 23 24 24 27 27 24 24 26 27 28 28 27 27 26 25 24 22 21 20 19 19 20 22 24 25 26 26 26 25 25 25 25 24 24 24 23
24 25 25 25 24 22 19 20 20 20 21 24 25 24 23 23 23 24 24 23 22 20 18 17 17 17 18 19 21 24 25 26 26 26 26 26 25 25 25 26 25 25 25 25
24 24 25 24 22 19 18 19 18 18 18 18 17 15 13 12 13 13 14 14 13 12 12 14 15 17 19 21 23 25 25 26 25 25 25 25 25 25 25 26 26 26 26 26
24 23 24 23 20 17 16 16 15 14 12 9 6 4 3 2 3 4 6 7 8 10 12 14 16 18 20 21 22 23 23 23 23 24 24 25 26 26 27 27 28 28 28 28
25 24 22 20 18 17 15 14 13 12 9 9 8 7 6 5 3 3 4 6 8 10 12 14 16 18 19 19 20 20 21 22 23 24 25 26 27 27 28 29 30 30 30 30
24 24 21 19 17 17 16 17 16 14 13 12 9 8 7 6 4 3 5 7 9 11 14 15 16 17 17 18 18 19 20 21 22 23 23 24 25 26 27 28 29 30 30 30
23 22 21 20 20 18 19 22 20 17 15 13 10 8 7 5 3 2 4 7 10 13 15 15 15 16 16 17 17 18 19 20 20 20 20 21 22 23 25 26 28 29 29 29
24 25 25 24 24 22 22 25 23 20 17 13 10 8 6 4 2 2 4 8 11 13 14 14 14 15 15 16 17 18 18 18 18 18 18 19 19 20 21 23 24 25 26 27
26 29 28 26 25 25 26 27 26 22 17 13 11 9 7 5 3 2 5 9 11 13 14 14 14 14 15 17 17 17 16 16 16 16 16 16 16 17 17 16 16 17 19 20
26 30 30 29 27 26 27 29 26 22 18 14 11 9 8 6 5 4 6 9 11 13 14 13 14 14 16 17 16 15 15 15 15 15 15 14 14 14 14 12 9 7 7 10

GEFSCGP_500_meanwind_024.txt.gz
Wind_Speed
40 39 39 40 40 39 39 37 36 36 35 34 31 29 28 28 28 27 26 24 23 23 23 22 22 22 22 22 22 22 23 23 22 21 20 19 18 18 17 16 16 16 15 15
39 41 41 40 39 40 40 39 38 37 36 35 32 29 28 28 27 27 26 25 24 23 23 23 23 22 22 22 23 23 24 24 24 23 22 21 20 20 20 19 18 18 16 16
35 38 39 39 39 39 39 39 38 37 35 34 32 29 27 27 26 25 25 25 24 23 23 24 24 23 23 23 24 24 24 25 25 25 23 23 22 23 22 22 21 21 20 19
27 30 33 35 36 37 37 37 36 35 33 32 31 30 26 25 25 25 25 24 24 23 23 24 25 24 24 24 25 25 25 26 26 26 25 24 24 25 25 25 25 24 23 23
27 28 28 30 32 34 34 34 34 34 33 32 31 31 27 25 24 25 25 24 23 23 24 25 25 25 25 26 26 26 26 26 26 26 26 26 26 27 27 27 27 27 27 26
26 28 28 28 29 29 29 29 29 30 30 30 29 28 26 25 25 25 24 24 24 23 23 24 25 26 26 27 26 26 26 26 26 26 26 27 28 28 28 29 28 28 29 28
24 26 28 28 28 28 27 27 27 27 27 27 25 24 23 23 22 22 22 23 23 23 23 24 25 26 27 27 26 25 25 25 25 26 26 27 27 28 28 29 29 29 29 29
23 24 26 27 27 27 27 26 27 25 24 24 23 21 20 20 19 19 18 19 20 21 23 23 24 26 26 26 26 25 24 24 24 24 25 24 25 25 25 25 26 27 27 27
25 25 25 26 26 26 26 26 26 26 24 23 22 21 19 16 16 16 16 17 19 21 22 23 24 25 26 26 26 24 24 24 23 24 23 23 22 22 22 22 22 23 24 25
27 26 24 24 25 26 26 26 25 25 24 24 24 23 21 18 17 16 16 17 19 21 22 23 23 24 25 24 24 23 23 23 23 23 23 23 22 21 20 20 20 20 21 22
27 28 26 25 25 26 26 26 26 27 27 25 25 24 22 20 17 16 16 17 19 20 21 21 21 22 22 22 23 23 23 23 23 24 24 23 22 21 20 19 18 18 18 19
26 27 27 26 27 27 28 27 27 27 26 25 25 24 23 21 19 19 20 20 20 21 21 21 21 21 22 22 23 23 23 24 24 24 24 23 22 22 20 19 19 18 18 19
25 25 25 25 25 26 28 28 27 27 27 26 25 23 21 20 19 20 21 21 22 22 22 22 21 21 22 23 23 24 24 25 24 24 23 22 22 22 22 21 21 20 20 20
26 25 25 24 24 25 25 26 26 24 23 23 21 21 20 20 20 21 21 22 23 23 23 23 23 22 23 23 24 25 25 25 24 22 21 20 20 21 22 23 23 23 23 23
26 25 25 25 25 24 21 21 20 20 21 21 20 20 21 21 22 22 23 24 24 24 23 23 23 23 23 24 25 26 25 24 23 21 21 20 20 21 22 23 23 24 24 24
25 23 23 23 22 22 19 18 19 19 19 20 20 20 21 21 22 22 23 24 24 24 24 24 24 23 24 25 25 25 23 22 21 21 21 22 22 23 23 23 23 24 24 24
21 19 19 19 18 17 17 16 16 17 17 18 17 17 18 19 20 21 21 22 23 23 24 23 23 23 23 22 21 20 20 20 21 22 23 24 24 24 24 24 24 24 24 24
15 12 13 14 13 11 12 13 13 14 14 13 13 14 15 15 16 17 17 18 19 19 20 19 18 18 17 17 18 19 20 21 22 23 24 25 25 24 24 24 24 23 23 24
12 7 9 11 12 12 12 12 12 11 12 12 12 13 13 13 13 13 13 13 13 14 14 13 13 14 16 17 19 20 21 22 23 23 24 24 24 23 23 23 24 24 24 24
9 4 7 9 11 12 13 13 13 11 12 12 12 11 11 10 8 8 8 8 8 9 9 10 12 14 16 18 19 20 20 21 21 22 22 22 23 23 23 23 24 24 25 25
7 4 8 11 12 12 13 14 14 14 14 12 12 11 9 7 6 5 5 5 5 6 7 9 11 14 15 16 17 18 18 19 19 20 20 21 21 22 22 22 23 24 25 26
7 7 9 11 13 14 15 15 16 16 16 14 13 11 8 6 5 4 4 4 5 6 8 9 11 12 13 14 15 15 16 17 18 18 18 19 19 20 21 21 22 23 24 25
8 8 12 14 14 14 15 16 16 16 18 16 14 10 7 5 4 4 4 4 6 7 9 10 11 11 12 13 14 15 16 16 16 16 16 17 18 18 19 20 21 21 22 24
9 7 13 16 18 16 15 17 17 18 20 17 13 9 7 6 5 4 3 5 7 9 10 10 11 11 11 13 14 15 15 15 15 15 15 15 16 16 17 17 18 19 20 21
11 7 12 16 19 19 16 16 17 19 20 17 13 10 8 6 5 3 3 5 8 10 10 11 11 10 11 13 13 13 13 13 13 13 13 13 13 14 15 15 15 16 16 16
13 7 11 15 18 20 18 15 18 20 19 16 12 10 9 7 4 3 4 6 9 10 11 11 11 11 12 12 12 12 12 12 11 11 11 12 12 13 13 14 13 12 10 9

GEFSCGP_500_meanwind_030.txt.gz
Wind_Speed
33 34 36 37 39 40 39 39 38 38 40 40 40 37 35 34 35 34 32 30 30 30 29 30 28 25 24 22 21 20 20 19 18 18 19 19 20 19 19 18 19 20 21 21
29 33 36 37 39 40 41 42 42 43 44 44 44 42 40 37 37 37 36 33 31 31 32 33 29 27 26 23 21 21 21 20 20 19 19 19 20 19 19 20 20 21 22 22
25 29 33 34 35 37 40 43 44 44 44 45 45 44 41 39 39 37 36 34 32 31 33 33 30 29 27 24 22 21 21 21 21 20 20 20 20 20 20 20 21 21 22 23
22 25 29 32 34 36 38 39 41 42 43 43 42 44 40 38 36 34 33 33 32 32 33 32 30 28 27 24 22 22 22 22 21 20 20 20 20 20 21 21 22 23 24 25
20 24 27 29 31 34 36 38 39 39 39 39 37 39 35 34 33 31 30 30 32 32 31 31 29 27 25 23 23 22 21 21 20 20 20 20 20 21 21 22 23 24 25 26
17 21 25 27 29 31 32 34 35 36 36 36 33 34 31 29 28 28 28 28 29 29 29 30 28 26 24 23 22 21 20 20 20 20 20 21 21 21 22 23 24 25 26 26
19 20 23 28 28 28 28 28 29 29 28 27 26 26 24 24 26 25 25 26 26 26 26 27 26 25 24 22 22 22 21 21 21 20 20 21 22 22 23 24 24 25 25 26
23 21 21 28 29 29 26 25 24 25 23 21 20 17 16 18 20 20 21 21 21 22 23 23 23 22 21 20 20 20 20 20 21 21 21 21 22 22 23 24 24 24 24 24
28 26 25 28 29 29 26 24 23 24 25 24 21 18 16 15 14 15 16 19 20 20 21 21 21 20 19 19 19 20 20 20 20 20 21 22 22 22 23 23 23 23 23 22
33 33 29 29 29 30 29 25 22 22 23 22 18 17 17 16 12 12 14 16 17 17 18 20 20 20 20 20 20 20 19 19 19 20 21 22 22 23 23 23 23 22 22 21
38 38 33 31 29 30 27 25 24 25 26 23 20 21 21 19 17 15 14 13 15 18 18 19 20 19 17 18 19 20 20 20 20 21 21 22 22 23 23 23 22 22 21 20
41 40 35 30 27 27 27 25 23 25 24 24 22 21 23 20 17 15 14 14 16 17 16 17 19 17 17 18 20 20 20 20 21 22 22 22 22 22 21 21 21 21 20 20
42 38 33 26 22 24 25 25 25 25 24 24 24 24 23 20 19 15 15 16 18 19 19 20 20 19 18 19 20 20 20 21 21 21 21 22 22 22 21 20 20 20 20 20
38 32 26 21 18 19 20 21 23 24 24 24 22 22 21 18 16 16 15 16 18 20 21 21 20 21 22 22 21 21 22 22 22 22 23 23 22 22 21 20 19 20 20 21
32 26 20 15 13 11 10 12 15 17 18 19 19 16 14 12 11 11 11 13 15 18 19 20 21 22 22 21 21 21 22 23 24 24 24 23 22 21 21 20 20 21 22 22
28 21 14 7 6 4 3 6 7 10 12 12 12 10 9 9 9 10 11 13 14 16 17 18 19 21 22 22 22 22 23 24 24 24 23 22 22 22 21 22 22 22 23 23
26 18 9 3 1 1 3 3 5 7 9 9 9 8 7 8 9 9 10 11 12 14 15 16 17 19 20 20 21 21 21 22 22 21 22 22 22 22 22 23 24 24 24 24
24 16 7 2 2 1 3 4 6 7 7 6 6 6 6 6 7 7 8 8 9 10 10 12 13 14 16 17 17 18 18 18 19 20 21 21 22 23 23 24 25 25 24 24
21 13 6 1 0 1 2 3 5 5 5 4 4 4 4 5 5 5 5 5 5 5 6 7 9 11 12 14 15 16 17 18 20 21 21 22 22 23 23 24 24 24 24 24
20 12 6 3 2 3 2 0 3 4 3 3 3 2 3 5 5 5 3 3 3 3 3 5 7 9 11 13 15 16 17 18 19 20 21 22 22 23 23 23 23 23 23 23
21 13 7 4 5 3 3 2 2 4 4 4 4 4 4 4 3 2 0 1 1 2 4 6 8 10 12 13 15 16 17 18 19 20 21 22 22 21 21 22 22 23 23 23
21 14 9 5 5 4 4 3 2 2 4 4 5 4 3 2 1 1 1 1 2 4 6 8 10 11 13 14 15 16 17 18 19 20 20 19 19 19 20 20 21 22 22 22
22 16 11 6 4 4 3 3 3 4 4 5 6 5 3 1 1 1 1 2 4 6 8 10 11 12 13 14 15 16 17 18 18 18 18 18 18 18 18 18 19 20 21 21
23 18 12 8 5 5 4 4 5 6 7 7 6 5 3 1 1 1 2 4 6 8 10 11 12 13 14 15 16 16 17 17 17 17 17 16 16 16 16 17 17 18 18 19
25 19 13 9 7 6 6 7 7 7 6 7 6 5 3 2 1 1 3 5 7 9 11 12 13 14 15 15 16 16 16 16 17 16 16 15 15 15 15 16 16 16 16 17
28 22 16 12 9 7 7 8 8 8 7 7 6 5 5 4 3 3 4 6 8 10 12 13 14 15 15 15 16 16 16 16 16 16 15 15 15 15 14 14 14 14 14 14

GEFSCGP_500_meanwind_036.txt.gz
Wind_Speed
24 26 29 31 33 34 36 37 38 39 40 41 40 40 38 37 37 35 34 33 33 32 31 31 31 30 27 25 24 22 22 21 21 21 21 20 19 18 19 19 18 17 17 17
22 25 28 30 32 34 36 38 39 40 41 43 43 41 39 39 39 38 38 37 36 35 32 32 32 31 29 27 26 25 25 24 23 23 23 22 20 19 19 19 19 19 18 18
19 22 25 28 31 33 35 38 39 40 40 41 43 41 38 38 40 40 39 38 36 35 34 33 33 32 31 29 27 27 28 28 26 25 24 23 22 20 19 19 19 19 18 19
17 20 24 26 29 32 34 35 37 38 39 39 40 41 35 36 36 36 35 34 33 32 33 32 31 32 31 30 30 30 31 30 28 26 24 23 22 21 20 19 19 20 20 20
15 19 22 25 28 30 32 32 33 34 35 35 34 37 32 33 33 32 31 31 29 28 28 28 29 31 32 32 30 31 31 32 30 27 24 22 22 21 21 20 20 21 21 21
17 21 25 27 29 30 32 32 33 32 31 30 28 29 28 28 28 29 29 28 27 25 24 25 28 30 31 31 30 30 30 29 28 26 24 22 21 21 21 21 21 22 22 23
20 24 28 31 32 33 33 33 33 32 29 26 24 24 24 25 25 25 25 25 24 24 24 23 24 26 28 29 29 28 28 28 27 24 23 22 21 21 22 22 23 23 24 24
26 27 31 34 35 35 34 34 33 32 29 25 22 22 22 23 22 22 22 22 22 22 23 22 23 24 25 27 27 25 25 25 23 22 21 21 21 21 22 22 23 24 24 25
32 33 34 35 37 37 37 34 33 32 29 26 22 21 22 21 20 20 21 21 23 22 22 22 23 24 24 26 25 23 21 20 19 19 18 19 20 21 23 23 23 24 24 25
37 38 37 38 38 38 37 34 31 29 27 25 23 22 22 21 20 20 21 22 22 22 22 22 22 22 23 22 20 19 18 17 16 17 18 19 21 22 23 23 24 24 24 25
39 38 37 35 33 32 30 30 28 26 25 23 22 20 20 19 18 20 20 20 20 21 22 22 23 23 21 17 17 16 16 16 16 17 18 19 21 22 23 23 23 23 23 23
37 34 30 26 22 20 19 20 21 21 21 21 19 18 17 16 14 15 17 17 17 17 17 18 18 15 14 12 13 14 14 15 16 16 18 20 21 21 22 22 21 21 21 21
33 28 23 17 13 11 10 11 14 16 16 16 17 15 14 14 12 11 11 11 11 11 11 10 11 10 9 9 11 12 13 15 16 17 19 19 20 21 22 22 21 20 20 20
30 26 21 17 14 11 6 3 5 8 8 9 11 10 9 8 9 8 7 6 6 7 9 10 10 9 9 9 9 10 12 15 17 19 20 21 22 21 22 21 21 20 19 19
29 25 20 17 16 13 8 4 2 1 2 4 5 3 4 2 2 3 4 4 4 6 8 9 10 9 9 10 10 12 13 15 18 20 21 23 22 21 20 19 18 18 18 19
28 25 21 19 17 14 12 9 7 6 6 6 4 2 3 3 2 2 1 2 4 6 7 8 9 10 10 11 11 12 14 16 19 21 21 21 20 17 16 16 17 18 18 19
27 24 22 18 16 14 12 12 11 9 8 8 7 6 5 4 3 1 1 2 4 5 7 8 9 10 10 11 12 14 15 16 17 18 18 17 17 17 17 17 18 19 19 20
25 22 21 19 16 14 13 11 11 10 10 9 8 7 5 4 3 1 0 2 3 4 4 5 7 8 9 11 12 14 15 16 16 17 17 18 19 19 18 18 19 20 20 21
23 20 19 18 15 14 12 11 11 10 9 8 7 6 5 4 3 2 1 1 2 3 4 5 6 7 8 10 12 14 15 16 17 18 19 19 20 20 20 20 21 21 20 21
21 19 18 17 14 12 11 10 10 9 9 8 7 6 5 3 3 2 1 1 2 2 3 4 5 6 8 10 12 13 15 16 18 19 19 19 20 20 20 20 20 20 19 20
20 19 17 16 14 12 10 8 8 7 6 5 5 4 4 3 3 2 1 1 2 2 4 6 7 8 10 11 13 14 16 17 18 18 19 19 19 19 20 19 19 18 18 19
20 18 16 14 12 10 8 6 6 6 5 4 3 3 2 2 2 3 2 2 2 3 5 7 9 10 12 13 14 15 17 18 18 18 19 19 19 19 19 18 18 19 19 19
21 17 15 14 11 9 7 5 4 4 3 3 2 2 2 2 2 1 1 1 3 4 6 9 11 12 13 14 15 16 17 18 18 18 18 18 18 18 18 18 18 18 19 19
21 19 16 14 12 10 8 5 4 3 2 2 1 1 1 1 1 1 1 2 4 6 7 10 11 13 14 15 16 17 17 17 17 17 17 17 18 18 18 18 18 18 18 18
22 20 18 15 13 11 9 8 5 4 3 1 1 1 2 2 2 2 2 3 5 7 9 10 12 13 15 16 16 16 17 16 16 17 17 17 17 17 17 17 16 16 16 16
23 22 21 18 16 13 11 9 7 5 4 3 3 3 3 4 4 3 4 4 6 8 10 11 12 14 15 15 16 16 17 17 17 17 17 17 17 16 15 14 14 14 14 14

GEFSCGP_500_meanwind_042.txt.gz
Wind_Speed
23 25 28 30 32 33 35 36 37 38 40 41 41 40 40 42 42 41 41 40 39 37 35 33 31 28 27 25 23 23 23 23 23 23 23 22 22 21 20 19 19 20 20 20
22 25 27 30 32 34 36 38 39 40 41 42 42 41 42 43 43 43 42 41 40 39 37 36 34 32 31 29 26 25 25 25 25 26 26 25 24 24 23 22 22 21 21 21
20 23 27 30 33 35 37 39 40 42 43 44 44 43 42 43 43 43 42 41 39 39 38 37 36 35 33 31 29 28 28 28 28 29 30 27 26 26 25 24 23 22 22 22
20 24 27 30 33 35 37 38 40 41 42 42 41 42 39 39 38 39 39 39 38 37 37 36 36 36 35 34 32 32 31 31 32 32 33 31 29 28 26 25 24 23 23 23
22 26 29 32 35 37 40 40 41 41 41 41 39 40 37 34 32 33 33 33 34 34 35 35 34 35 35 35 35 34 35 35 35 35 34 32 31 28 25 24 24 24 23 23
26 31 34 37 40 42 43 43 43 42 40 40 36 35 35 32 30 29 29 30 30 30 31 31 32 33 34 35 36 36 37 37 36 37 36 32 30 27 24 23 23 23 23 23
31 34 37 39 41 42 43 43 43 41 38 36 32 31 31 29 27 26 26 26 27 28 28 29 30 31 32 33 35 36 38 38 37 36 33 31 29 27 24 24 24 24 24 24
33 35 37 39 40 39 38 38 36 35 32 29 26 25 24 24 23 23 24 24 25 26 26 28 29 30 31 32 33 34 35 35 34 33 31 29 27 25 23 23 23 23 24 23
33 34 35 34 34 33 31 28 29 29 27 25 24 23 20 20 21 21 22 22 23 24 24 26 27 29 30 30 31 32 32 30 30 28 27 24 23 21 20 21 22 22 22 22
32 33 32 31 28 26 23 20 18 18 20 19 19 18 17 17 17 17 18 19 19 22 22 23 24 26 27 28 28 26 26 24 23 21 20 19 18 18 19 19 21 21 22 23
30 31 30 27 24 22 19 15 12 11 12 13 14 13 13 14 14 13 13 14 15 17 19 20 21 23 24 24 23 22 21 19 17 16 15 15 15 16 18 20 21 22 23 24
29 29 27 26 24 21 18 13 8 5 5 8 9 8 8 8 8 9 9 10 11 12 14 14 15 16 17 18 16 15 15 14 12 12 12 13 15 17 19 21 22 23 23 24
28 27 26 24 23 21 17 13 10 5 1 1 3 3 4 4 5 5 5 5 6 6 6 6 6 7 8 9 10 9 9 10 11 11 12 13 16 18 20 21 23 24 24 24
26 26 27 26 25 22 19 16 13 10 7 6 5 4 2 2 3 3 3 2 1 1 1 1 1 1 3 4 5 7 8 8 10 11 13 15 17 19 19 21 22 23 23 23
25 25 26 27 24 21 20 18 15 12 9 9 9 8 6 5 6 6 6 6 7 6 5 4 4 3 3 2 4 5 6 7 9 12 14 16 17 18 19 19 19 20 19 19
25 24 25 25 24 22 20 17 16 14 11 11 11 11 10 9 8 9 8 9 9 8 8 8 7 5 3 1 2 4 6 7 10 11 13 14 15 17 17 17 17 17 16 16
25 24 24 24 22 20 19 17 15 14 13 11 11 10 10 10 9 8 8 8 8 9 9 8 7 6 5 3 2 3 5 7 9 11 13 14 15 16 16 16 16 16 16 16
25 24 23 23 22 19 18 17 14 12 12 11 10 10 9 9 9 9 9 9 9 8 8 7 7 6 5 5 5 6 7 9 10 12 14 15 15 16 16 17 17 16 16 16
24 23 23 22 21 19 17 16 14 12 11 11 10 9 8 8 8 8 8 8 8 8 8 8 8 8 7 7 7 8 9 10 11 12 13 14 15 16 16 17 17 16 17 17
24 23 22 21 20 19 17 16 13 11 10 10 10 9 7 6 6 7 7 7 7 8 8 8 8 8 8 9 9 10 11 11 12 13 14 15 15 16 17 17 17 17 17 17
23 23 22 20 19 18 17 15 13 11 10 9 8 8 7 6 6 6 6 6 7 7 8 8 9 10 10 11 12 12 13 13 14 15 15 15 16 16 16 16 16 16 16 17
24 23 23 21 19 18 16 14 13 11 8 8 7 6 5 5 4 5 5 6 7 8 9 10 10 11 12 13 14 15 15 15 16 16 16 16 16 16 16 16 16 16 16 16
24 24 24 22 20 18 16 14 13 12 9 8 7 6 5 4 4 5 5 6 7 8 9 10 12 13 14 15 16 17 17 17 17 17 17 17 17 17 17 16 16 16 15 15
23 24 24 23 22 20 17 15 14 12 10 9 7 7 6 6 6 6 6 6 7 8 10 11 12 14 15 16 17 18 18 18 18 19 19 19 18 18 17 16 15 14 13 13
22 23 23 22 23 22 19 17 16 13 10 9 9 8 8 8 8 7 6 6 7 8 10 11 13 14 15 16 17 18 19 19 19 19 19 18 17 16 15 13 12 11 11 10
20 21 22 22 22 22 21 19 17 14 11 10 10 9 9 9 9 8 7 7 7 8 9 10 12 14 15 16 17 18 19 19 19 19 18 17 16 14 12 11 10 9 8 8

GEFSCGP_500_meanwind_048.txt.gz
Wind_Speed
20 22 24 26 28 30 32 34 35 37 38 39 40 41 41 41 41 40 39 38 36 35 34 34 33 33 33 32 31 30 29 29 28 28 27 27 26 26 26 25 24 23 22 21
19 22 24 26 29 31 33 35 37 39 40 40 41 42 43 42 42 42 41 40 39 37 37 36 35 34 34 34 34 34 33 33 32 32 31 30 30 29 30 30 27 25 24 24
18 20 23 26 28 31 33 36 38 39 41 41 42 43 43 43 43 43 42 41 40 38 37 37 36 36 36 35 36 37 36 37 36 35 35 34 34 35 35 32 29 28 25 24
17 20 23 26 28 30 34 36 38 40 41 42 42 41 43 41 40 40 39 39 38 37 36 36 36 36 36 36 36 38 39 39 39 38 38 39 39 39 39 36 32 30 28 26
18 20 22 25 27 29 32 34 35 37 39 40 41 41 39 40 38 37 36 35 35 34 32 32 33 34 35 36 37 38 39 40 41 40 40 41 41 42 41 39 34 32 32 29
17 20 21 23 25 27 29 32 34 34 34 35 33 33 34 35 33 32 32 32 32 31 31 31 32 32 34 35 36 37 39 41 41 41 42 42 43 43 42 41 39 34 32 29
18 19 20 22 25 28 31 32 32 30 28 26 24 24 27 27 27 27 27 28 28 28 28 28 29 31 32 34 35 36 37 40 40 40 42 43 44 44 42 40 36 32 29 27
19 20 21 23 26 29 30 29 26 23 19 18 18 18 20 20 21 22 24 24 24 25 26 27 27 28 29 31 32 33 34 35 37 39 39 40 41 40 40 38 33 29 27 25
19 20 22 24 26 28 28 24 20 16 13 11 11 12 14 14 15 17 18 20 22 22 23 24 24 24 25 27 27 28 29 31 32 34 34 34 33 32 33 32 28 25 23 22
20 21 23 25 26 26 24 21 18 13 9 6 5 6 7 7 8 9 13 15 17 19 20 20 20 20 21 23 24 25 25 26 29 31 30 29 28 28 28 24 21 21 20 19
21 22 23 24 25 24 23 21 18 13 10 6 3 4 4 5 5 6 8 9 11 12 14 15 15 16 17 18 21 21 22 22 23 25 25 24 23 22 20 19 18 17 15 14
21 22 23 23 24 24 22 21 18 14 12 9 7 7 5 5 6 6 4 4 4 7 8 9 10 11 12 13 14 15 15 16 17 17 16 15 14 13 12 12 12 11 11 11
21 22 23 23 24 24 23 21 19 16 13 11 9 8 6 6 7 7 5 3 1 1 4 5 5 6 6 7 8 9 9 9 10 10 10 9 8 7 7 7 7 9 10 11
21 22 22 23 23 23 23 21 19 17 14 13 12 10 9 9 9 8 8 7 5 5 3 2 1 0 1 3 5 6 6 6 8 8 7 6 6 6 6 7 8 10 12 13
20 21 22 22 22 23 22 21 20 18 16 14 14 13 12 11 10 11 11 11 10 9 7 7 5 4 3 2 3 3 3 3 4 5 5 5 6 7 8 9 10 11 12 14
21 21 21 21 21 22 22 21 19 18 16 15 14 13 12 12 12 12 11 11 11 11 10 8 7 7 6 5 4 3 2 1 1 3 5 6 7 8 9 10 11 12 14 15
21 22 22 21 21 20 21 20 19 17 15 14 14 13 13 13 13 12 11 10 10 10 10 9 8 8 7 6 5 5 4 4 5 5 6 8 9 9 10 12 13 13 14 15
21 21 22 21 21 20 19 18 17 16 14 13 12 12 11 11 11 11 11 10 10 10 9 9 9 8 8 7 6 6 6 6 7 8 9 11 12 12 13 14 15 15 16 16
21 21 22 22 21 20 19 18 16 14 13 13 12 11 11 10 10 9 9 9 9 9 9 9 9 9 9 8 8 8 8 9 9 10 11 12 13 14 15 16 17 17 18 18
20 21 22 22 21 21 20 18 16 14 12 12 11 10 9 9 8 8 8 7 7 7 8 8 9 9 9 10 10 10 10 10 11 11 12 13 14 15 16 16 17 17 18 18
19 20 21 22 22 21 20 18 16 14 13 12 12 10 9 8 8 8 7 6 6 6 7 8 8 9 10 10 11 11 11 11 12 12 13 14 14 15 15 16 16 17 17 18
18 19 20 21 21 21 20 18 17 14 13 12 12 12 10 8 8 7 7 6 6 6 7 7 9 10 10 11 11 12 12 12 13 13 13 14 14 15 15 15 15 16 16 17
17 18 19 20 20 20 21 19 17 15 14 13 13 12 11 9 8 8 7 6 6 6 7 8 9 11 11 12 12 13 13 13 13 13 13 13 13 13 13 13 13 13 14 14
15 16 17 18 19 20 21 19 18 17 16 15 13 13 12 10 9 8 7 6 5 6 7 8 10 10 11 12 13 14 14 14 14 14 13 13 12 12 10 10 10 11 11 11
15 16 17 17 17 19 20 19 19 18 18 16 15 13 12 11 10 8 7 6 6 6 7 8 9 10 12 13 14 14 15 15 15 14 14 13 12 11 10 9 9 8 8 7
14 15 16 17 17 18 18 19 19 19 19 18 17 15 14 13 10 8 6 5 5 5 6 8 9 10 11 13 14 15 15 16 16 15 15 14 13 12 11 10 9 8 7 7

GEFSCGP_500_meanwind_054.txt.gz
Wind_Speed
14 17 19 20 22 23 24 26 28 30 33 36 37 37 39 42 42 42 43 44 44 42 42 40 38 38 37 36 36 35 35 34 33 31 31 32 31 30 28 27 27 27 27 27
15 17 17 19 22 23 25 27 28 30 33 35 36 37 37 41 44 44 44 45 45 44 44 42 41 40 40 39 39 39 38 37 37 35 35 35 33 32 32 31 30 30 30 29
14 15 17 19 22 22 24 27 28 29 31 33 35 36 34 39 42 43 43 44 44 43 43 43 43 42 41 41 40 40 40 39 39 38 38 37 37 37 35 35 34 34 33 33
13 14 17 19 21 22 24 26 27 29 31 32 32 32 32 36 39 40 40 39 40 40 40 41 41 41 41 41 41 40 40 40 40 40 39 38 38 38 37 38 38 37 36 35
12 15 17 18 20 21 22 24 27 29 30 30 28 28 30 33 36 38 38 37 37 38 37 38 39 39 39 39 39 40 40 40 40 40 39 39 39 40 39 39 40 39 37 37
12 14 16 17 18 20 22 24 26 26 27 25 24 24 27 29 32 34 36 38 40 38 35 34 35 36 36 37 37 37 38 39 39 39 39 40 40 40 40 41 41 40 39 39
11 13 15 17 19 20 22 23 24 23 22 20 21 21 23 25 27 30 32 33 35 35 32 31 31 32 34 34 35 35 36 37 38 39 39 39 40 40 40 39 40 40 39 38
14 15 17 19 20 21 21 21 22 22 21 18 18 19 20 22 23 24 25 25 26 27 28 28 28 28 28 29 30 31 32 33 34 35 36 37 37 38 39 39 38 37 37 35
14 15 17 19 20 20 20 20 21 20 19 18 17 18 18 17 18 20 21 21 21 21 22 23 24 24 23 24 25 26 28 29 29 30 31 33 34 35 36 36 36 35 33 33
15 16 17 19 20 20 21 21 20 19 18 16 16 17 16 15 16 16 17 15 15 15 16 17 18 18 19 20 21 22 22 23 24 25 26 27 28 29 29 29 30 31 31 29
16 17 18 19 20 21 22 21 21 19 18 16 16 17 17 17 16 18 17 14 12 12 12 12 13 14 16 17 18 18 18 19 20 21 22 23 23 23 24 25 25 24 24 25
17 18 18 19 20 21 21 21 21 20 19 17 16 16 17 17 17 17 16 14 13 12 11 10 10 11 11 13 14 15 16 15 16 16 17 17 17 18 18 18 18 17 17 19
17 18 19 19 20 21 21 21 20 19 18 17 16 16 16 16 17 16 17 16 14 13 12 9 8 8 8 7 8 9 10 10 10 10 11 11 10 10 10 10 11 10 12 13
18 19 20 20 20 20 21 21 20 19 18 17 17 16 16 15 16 16 17 17 16 15 14 12 9 9 8 7 6 5 5 5 4 5 6 6 6 6 6 7 7 7 8 9
18 19 19 18 19 19 20 20 20 19 19 18 18 17 17 16 16 16 16 16 17 17 16 16 12 10 9 9 9 8 5 4 4 4 5 4 5 4 4 4 4 5 6 7
18 19 19 19 19 20 20 20 19 19 18 18 18 17 17 16 16 16 16 16 16 16 16 17 16 14 12 11 11 10 9 8 7 6 6 5 5 5 5 5 5 6 7 8
17 19 20 20 20 20 20 20 19 18 18 17 17 17 17 17 16 16 16 15 15 15 15 16 16 15 15 14 13 12 11 10 8 7 6 6 6 6 6 7 8 9 9 10
17 18 20 20 20 20 20 20 19 18 18 18 17 17 16 16 16 16 15 15 15 14 14 15 15 15 14 14 14 13 13 12 11 9 9 8 8 8 9 10 10 10 11 11
16 17 19 20 20 20 20 20 19 19 18 18 17 17 16 16 16 16 15 14 13 14 14 14 14 15 15 14 14 14 13 13 13 12 12 11 11 11 11 11 11 12 12 13
15 17 18 19 20 21 20 20 20 19 19 19 18 18 17 17 17 16 15 13 12 12 13 14 15 15 15 15 15 15 15 15 15 14 13 13 13 13 13 13 13 13 13 13
14 16 18 19 20 20 21 21 21 21 21 20 19 18 18 17 16 15 13 12 11 11 12 13 14 15 15 15 16 16 16 16 16 15 15 14 14 13 13 13 13 13 13 13
14 16 17 19 20 20 20 20 21 22 22 21 20 19 18 17 15 13 12 11 10 10 11 12 13 14 15 16 16 17 17 17 16 16 15 15 14 13 13 13 12 12 12 12
14 16 17 19 19 19 19 20 21 23 23 22 21 20 19 17 14 12 11 10 10 11 11 11 13 14 15 16 17 17 17 17 17 16 16 15 15 13 13 12 11 11 11 11
14 15 16 17 17 18 18 19 21 22 23 23 22 20 19 16 14 12 10 10 10 11 11 11 12 14 15 16 17 17 18 18 18 17 17 16 15 14 13 13 12 12 11 10
14 15 16 16 17 17 18 19 20 22 23 23 22 20 18 16 14 12 11 11 11 10 10 11 12 13 15 16 17 17 18 18 19 18 18 17 17 16 15 14 13 13 12 11
14 15 15 16 16 17 17 18 19 20 22 22 22 20 18 16 14 12 11 11 11 11 11 11 12 13 15 16 17 17 18 19 19 19 19 19 18 17 17 16 15 15 14 13